"Sample Date","Sample Time","Sample Value","Units","Flow Rate","Sample Interval","Number Channels","Micron Size 0","Counts/Channel 0","Micron Size 1","Counts/Channel 1","Micron Size 2","Counts/Channel 2","Micron Size 3","Counts/Channel 3","Micron Size 4","Counts/Channel 4","Micron Size 5","Counts/Channel 5","Micron Size 6","Counts/Channel 6","Micron Size 7","Counts/Channel 7","Micron Size 8","Counts/Channel 8","Micron Size 9","Counts/Channel 9","Micron Size 10","Counts/Channel 10","Micron Size 11","Counts/Channel 11","Micron Size 12","Counts/Channel 12","Micron Size 13","Counts/Channel 13","Micron Size 14","Counts/Channel 14","Micron Size 15","Counts/Channel 15","Micron Size 16","Counts/Channel 16","Micron Size 17","Counts/Channel 17","Micron Size 18","Counts/Channel 18","Micron Size 19","Counts/Channel 19","Micron Size 20","Counts/Channel 20","Micron Size 21","Counts/Channel 21","Micron Size 22","Counts/Channel 22","Micron Size 23","Counts/Channel 23","Micron Size 24","Counts/Channel 24","Micron Size 25","Counts/Channel 25","Micron Size 26","Counts/Channel 26","Micron Size 27","Counts/Channel 27","Micron Size 28","Counts/Channel 28","Micron Size 29","Counts/Channel 29","Micron Size 30","Counts/Channel 30","Micron Size 31","Counts/Channel 31"
"03/09/08","12:00:03",288615.000,"cc",28366.787,6.00,6,0.100,238464.000,0.200,44843.000,0.300,4479.000,0.500,756.000,1.000,73.000,5.000,0
"03/09/08","12:00:09",258313.000,"cc",28354.902,6.00,6,0.100,215536.000,0.200,38350.000,0.300,3663.000,0.500,681.000,1.000,83.000,5.000,0
"03/09/08","12:00:15",369772.000,"cc",28293.178,6.00,6,0.100,287699.000,0.200,73373.000,0.300,7757.000,0.500,827.000,1.000,116.000,5.000,0
"03/09/08","12:00:21",483356.000,"cc",28235.486,6.00,6,0.100,347427.000,0.200,122474.000,0.300,12772.000,0.500,629.000,1.000,54.000,5.000,0
"03/09/08","12:00:27",345489.000,"cc",28372.852,6.00,6,0.100,263010.000,0.200,75469.000,0.300,6462.000,0.500,479.000,1.000,69.000,5.000,0
"03/09/08","12:00:33",339283.000,"cc",28319.811,6.00,6,0.100,256660.000,0.200,75315.000,0.300,6665.000,0.500,575.000,1.000,68.000,5.000,0
"03/09/08","12:00:39",388225.000,"cc",28341.924,6.00,6,0.100,291694.000,0.200,87855.000,0.300,8004.000,0.500,608.000,1.000,64.000,5.000,0
"03/09/08","12:00:45",378399.000,"cc",28282.426,6.00,6,0.100,285161.000,0.200,84961.000,0.300,7641.000,0.500,551.000,1.000,85.000,5.000,0
"03/09/08","12:00:51",343946.000,"cc",28280.611,6.00,6,0.100,283033.000,0.200,55935.000,0.300,4518.000,0.500,419.000,1.000,41.000,5.000,0
"03/09/08","12:00:57",402054.000,"cc",28321.785,6.00,6,0.100,324114.000,0.200,71328.000,0.300,6100.000,0.500,457.000,1.000,55.000,5.000,0
"03/09/08","12:01:03",378983.000,"cc",28334.619,6.00,6,0.100,278606.000,0.200,91985.000,0.300,7873.000,0.500,473.000,1.000,46.000,5.000,0
"03/09/08","12:01:09",395485.000,"cc",28307.393,6.00,6,0.100,290207.000,0.200,96524.000,0.300,8277.000,0.500,439.000,1.000,38.000,5.000,0
"03/09/08","12:01:15",400779.000,"cc",28346.434,6.00,6,0.100,316243.000,0.200,77416.000,0.300,6666.000,0.500,406.000,1.000,48.000,5.000,0
"03/09/08","12:01:21",417610.000,"cc",28261.443,6.00,6,0.100,298378.000,0.200,108426.000,0.300,10212.000,0.500,534.000,1.000,60.000,5.000,0
"03/09/08","12:01:27",433715.000,"cc",28345.303,6.00,6,0.100,306196.000,0.200,115462.000,0.300,11431.000,0.500,568.000,1.000,58.000,5.000,0
"03/09/08","12:01:33",426019.000,"cc",28285.838,6.00,6,0.100,287767.000,0.200,118466.000,0.300,19003.000,0.500,722.000,1.000,61.000,5.000,0
"03/09/08","12:01:39",446009.000,"cc",28289.725,6.00,6,0.100,282180.000,0.200,139248.000,0.300,23580.000,0.500,935.000,1.000,66.000,5.000,0
"03/09/08","12:01:45",329737.000,"cc",28327.344,6.00,6,0.100,266390.000,0.200,57584.000,0.300,5286.000,0.500,424.000,1.000,53.000,5.000,0
"03/09/08","12:01:51",382481.000,"cc",28323.660,6.00,6,0.100,305477.000,0.200,70081.000,0.300,6368.000,0.500,505.000,1.000,50.000,5.000,0
"03/09/08","12:01:57",241737.000,"cc",28298.182,6.00,6,0.100,186505.000,0.200,50384.000,0.300,4434.000,0.500,365.000,1.000,49.000,5.000,0
"03/09/08","12:02:03",442987.000,"cc",28363.861,6.00,6,0.100,344693.000,0.200,89580.000,0.300,8195.000,0.500,472.000,1.000,47.000,5.000,0
"03/09/08","12:02:09",386502.000,"cc",28341.031,6.00,6,0.100,288611.000,0.200,89611.000,0.300,7831.000,0.500,415.000,1.000,34.000,5.000,0
"03/09/08","12:02:15",373743.000,"cc",28324.428,6.00,6,0.100,282592.000,0.200,83370.000,0.300,7285.000,0.500,456.000,1.000,40.000,5.000,0
"03/09/08","12:02:21",368961.000,"cc",28252.225,6.00,6,0.100,277282.000,0.200,83557.000,0.300,7500.000,0.500,550.000,1.000,72.000,5.000,0
"03/09/08","12:02:27",369058.000,"cc",28239.469,6.00,6,0.100,278699.000,0.200,82765.000,0.300,7088.000,0.500,458.000,1.000,48.000,5.000,0
"03/09/08","12:02:33",311546.000,"cc",28324.897,6.00,6,0.100,257064.000,0.200,49592.000,0.300,4383.000,0.500,458.000,1.000,49.000,5.000,0
"03/09/08","12:02:39",383117.000,"cc",28361.035,6.00,6,0.100,310478.000,0.200,66167.000,0.300,5876.000,0.500,531.000,1.000,65.000,5.000,0
"03/09/08","12:02:45",402258.000,"cc",28384.457,6.00,6,0.100,322472.000,0.200,72653.000,0.300,6498.000,0.500,569.000,1.000,66.000,5.000,0
"03/09/08","12:02:51",356116.000,"cc",28281.797,6.00,6,0.100,269807.000,0.200,78767.000,0.300,6909.000,0.500,572.000,1.000,61.000,5.000,0
"03/09/08","12:02:57",414069.000,"cc",28355.772,6.00,6,0.100,326582.000,0.200,78932.000,0.300,7666.000,0.500,798.000,1.000,91.000,5.000,0
"03/09/08","12:03:03",357120.000,"cc",28307.797,6.00,6,0.100,290773.000,0.200,60102.000,0.300,5478.000,0.500,689.000,1.000,78.000,5.000,0
"03/09/08","12:03:09",398195.000,"cc",28279.020,6.00,6,0.100,322028.000,0.200,69657.000,0.300,5867.000,0.500,575.000,1.000,68.000,5.000,0
"03/09/08","12:03:15",377749.000,"cc",28282.162,6.00,6,0.100,308789.000,0.200,63128.000,0.300,5183.000,0.500,576.000,1.000,73.000,5.000,0
"03/09/08","12:03:21",389682.000,"cc",28409.441,6.00,6,0.100,316230.000,0.200,67076.000,0.300,5656.000,0.500,630.000,1.000,90.000,5.000,0
"03/09/08","12:03:27",317757.000,"cc",28250.650,6.00,6,0.100,263054.000,0.200,50059.000,0.300,4152.000,0.500,436.000,1.000,56.000,5.000,0
"03/09/08","12:03:33",373664.000,"cc",28386.100,6.00,6,0.100,302501.000,0.200,64798.000,0.300,5701.000,0.500,606.000,1.000,58.000,5.000,0
"03/09/08","12:03:39",308067.000,"cc",28183.922,6.00,6,0.100,235015.000,0.200,66531.000,0.300,5912.000,0.500,550.000,1.000,59.000,5.000,0
"03/09/08","12:03:45",385297.000,"cc",28305.445,6.00,6,0.100,313165.000,0.200,65860.000,0.300,5633.000,0.500,578.000,1.000,61.000,5.000,0
"03/09/08","12:03:51",432134.000,"cc",28402.084,6.00,6,0.100,340875.000,0.200,83222.000,0.300,7329.000,0.500,625.000,1.000,83.000,5.000,0
"03/09/08","12:03:57",317147.000,"cc",28289.471,6.00,6,0.100,242610.000,0.200,67884.000,0.300,5970.000,0.500,596.000,1.000,87.000,5.000,0
"03/09/08","12:04:03",405529.000,"cc",28338.148,6.00,6,0.100,326886.000,0.200,71829.000,0.300,6220.000,0.500,525.000,1.000,69.000,5.000,0
"03/09/08","12:04:09",358922.000,"cc",28305.848,6.00,6,0.100,275074.000,0.200,76942.000,0.300,6337.000,0.500,504.000,1.000,65.000,5.000,0
"03/09/08","12:04:15",364313.000,"cc",28354.293,6.00,6,0.100,295290.000,0.200,62667.000,0.300,5650.000,0.500,640.000,1.000,66.000,5.000,0
"03/09/08","12:04:21",383701.000,"cc",28287.148,6.00,6,0.100,309324.000,0.200,66445.000,0.300,6532.000,0.500,1207.000,1.000,193.000,5.000,0
"03/09/08","12:04:27",434412.000,"cc",28323.570,6.00,6,0.100,338006.000,0.200,86763.000,0.300,8067.000,0.500,1398.000,1.000,178.000,5.000,0
"03/09/08","12:04:33",343055.000,"cc",28288.113,6.00,6,0.100,262075.000,0.200,74036.000,0.300,6123.000,0.500,714.000,1.000,107.000,5.000,0
"03/09/08","12:04:39",419221.000,"cc",28293.670,6.00,6,0.100,246644.000,0.200,146157.000,0.300,25350.000,0.500,984.000,1.000,86.000,5.000,0
"03/09/08","12:04:45",411330.000,"cc",28329.584,6.00,6,0.100,326587.000,0.200,76542.000,0.300,7024.000,0.500,1003.000,1.000,174.000,5.000,0
"03/09/08","12:04:51",412616.000,"cc",28331.420,6.00,6,0.100,302579.000,0.200,100230.000,0.300,8837.000,0.500,828.000,1.000,142.000,5.000,0
"03/09/08","12:04:57",402228.000,"cc",28329.697,6.00,6,0.100,319565.000,0.200,75177.000,0.300,6631.000,0.500,749.000,1.000,106.000,5.000,0
"03/09/08","12:05:03",452096.000,"cc",28385.975,6.00,6,0.100,314269.000,0.200,125680.000,0.300,11223.000,0.500,809.000,1.000,115.000,5.000,0
"03/09/08","12:05:09",420634.000,"cc",28305.731,6.00,6,0.100,333773.000,0.200,79552.000,0.300,6556.000,0.500,662.000,1.000,91.000,5.000,0
"03/09/08","12:05:15",423010.000,"cc",28204.168,6.00,6,0.100,339562.000,0.200,76798.000,0.300,6087.000,0.500,499.000,1.000,64.000,5.000,0
"03/09/08","12:05:21",445256.000,"cc",28292.283,6.00,6,0.100,352791.000,0.200,85310.000,0.300,6584.000,0.500,504.000,1.000,67.000,5.000,0
"03/09/08","12:05:27",413990.000,"cc",28374.869,6.00,6,0.100,308426.000,0.200,97056.000,0.300,7814.000,0.500,603.000,1.000,91.000,5.000,0
"03/09/08","12:05:33",364190.000,"cc",28308.467,6.00,6,0.100,296126.000,0.200,62415.000,0.300,5040.000,0.500,528.000,1.000,81.000,5.000,0
"03/09/08","12:05:39",344525.000,"cc",28269.332,6.00,6,0.100,265839.000,0.200,72753.000,0.300,5433.000,0.500,445.000,1.000,55.000,5.000,0
"03/09/08","12:05:45",326876.000,"cc",28303.688,6.00,6,0.100,269123.000,0.200,52204.000,0.300,4671.000,0.500,760.000,1.000,118.000,5.000,0
"03/09/08","12:05:51",370217.000,"cc",28353.565,6.00,6,0.100,301453.000,0.200,62552.000,0.300,5387.000,0.500,736.000,1.000,89.000,5.000,0
"03/09/08","12:05:57",394432.000,"cc",28328.990,6.00,6,0.100,294083.000,0.200,91331.000,0.300,7819.000,0.500,1049.000,1.000,150.000,5.000,0
"03/09/08","12:06:03",417195.000,"cc",28300.621,6.00,6,0.100,332854.000,0.200,76922.000,0.300,6482.000,0.500,808.000,1.000,129.000,5.000,0
"03/09/08","12:06:09",388593.000,"cc",28318.717,6.00,6,0.100,292821.000,0.200,88032.000,0.300,6878.000,0.500,750.000,1.000,112.000,5.000,0
"03/09/08","12:06:15",411359.000,"cc",28296.049,6.00,6,0.100,332114.000,0.200,72151.000,0.300,5905.000,0.500,1039.000,1.000,150.000,5.000,0
"03/09/08","12:06:21",377390.000,"cc",28307.686,6.00,6,0.100,287978.000,0.200,81946.000,0.300,6518.000,0.500,831.000,1.000,117.000,5.000,0
"03/09/08","12:06:27",442740.000,"cc",28324.039,6.00,6,0.100,350317.000,0.200,85449.000,0.300,6377.000,0.500,514.000,1.000,83.000,5.000,0
"03/09/08","12:06:33",393412.000,"cc",28331.846,6.00,6,0.100,292094.000,0.200,93726.000,0.300,7048.000,0.500,477.000,1.000,67.000,5.000,0
"03/09/08","12:06:39",355308.000,"cc",28309.762,6.00,6,0.100,268101.000,0.200,80776.000,0.300,6023.000,0.500,369.000,1.000,39.000,5.000,0
"03/09/08","12:06:45",352930.000,"cc",28318.053,6.00,6,0.100,272868.000,0.200,74032.000,0.300,5525.000,0.500,442.000,1.000,63.000,5.000,0
"03/09/08","12:06:51",386209.000,"cc",28303.881,6.00,6,0.100,292313.000,0.200,86432.000,0.300,6928.000,0.500,479.000,1.000,57.000,5.000,0
"03/09/08","12:06:57",421929.000,"cc",28310.010,6.00,6,0.100,308332.000,0.200,104579.000,0.300,8400.000,0.500,538.000,1.000,80.000,5.000,0
"03/09/08","12:07:03",428312.000,"cc",28337.430,6.00,6,0.100,313246.000,0.200,105741.000,0.300,8715.000,0.500,542.000,1.000,68.000,5.000,0
"03/09/08","12:07:09",353424.000,"cc",28280.828,6.00,6,0.100,269595.000,0.200,77157.000,0.300,6165.000,0.500,447.000,1.000,60.000,5.000,0
"03/09/08","12:07:15",352309.000,"cc",28339.477,6.00,6,0.100,289865.000,0.200,57648.000,0.300,4378.000,0.500,376.000,1.000,42.000,5.000,0
"03/09/08","12:07:21",420534.000,"cc",28345.357,6.00,6,0.100,293455.000,0.200,111708.000,0.300,14652.000,0.500,668.000,1.000,51.000,5.000,0
"03/09/08","12:07:27",426392.000,"cc",28293.141,6.00,6,0.100,335445.000,0.200,82678.000,0.300,7511.000,0.500,675.000,1.000,83.000,5.000,0
"03/09/08","12:07:33",360169.000,"cc",28338.945,6.00,6,0.100,292647.000,0.200,61229.000,0.300,5415.000,0.500,773.000,1.000,105.000,5.000,0
"03/09/08","12:07:39",370580.000,"cc",28351.686,6.00,6,0.100,273621.000,0.200,88038.000,0.300,7996.000,0.500,788.000,1.000,137.000,5.000,0
"03/09/08","12:07:45",302001.000,"cc",28298.740,6.00,6,0.100,250203.000,0.200,46652.000,0.300,4290.000,0.500,742.000,1.000,114.000,5.000,0
"03/09/08","12:07:51",370694.000,"cc",28293.357,6.00,6,0.100,299798.000,0.200,64296.000,0.300,5806.000,0.500,701.000,1.000,93.000,5.000,0
"03/09/08","12:07:57",380027.000,"cc",28326.482,6.00,6,0.100,284058.000,0.200,87229.000,0.300,7865.000,0.500,757.000,1.000,118.000,5.000,0
"03/09/08","12:08:03",427785.000,"cc",28327.139,6.00,6,0.100,309746.000,0.200,107491.000,0.300,9708.000,0.500,721.000,1.000,119.000,5.000,0
"03/09/08","12:08:09",333985.000,"cc",28338.900,6.00,6,0.100,251905.000,0.200,74879.000,0.300,6511.000,0.500,610.000,1.000,80.000,5.000,0
"03/09/08","12:08:15",301212.000,"cc",28292.607,6.00,6,0.100,228989.000,0.200,66334.000,0.300,5322.000,0.500,500.000,1.000,67.000,5.000,0
"03/09/08","12:08:21",455208.000,"cc",28250.191,6.00,6,0.100,314743.000,0.200,128775.000,0.300,11008.000,0.500,607.000,1.000,75.000,5.000,0
"03/09/08","12:08:27",445589.000,"cc",28246.590,6.00,6,0.100,283066.000,0.200,146543.000,0.300,15139.000,0.500,757.000,1.000,84.000,5.000,0
"03/09/08","12:08:33",341490.000,"cc",28355.277,6.00,6,0.100,246929.000,0.200,85886.000,0.300,7972.000,0.500,636.000,1.000,67.000,5.000,0
"03/09/08","12:08:39",378124.000,"cc",28302.020,6.00,6,0.100,304810.000,0.200,67215.000,0.300,5536.000,0.500,494.000,1.000,69.000,5.000,0
"03/09/08","12:08:45",454637.000,"cc",28285.971,6.00,6,0.100,354882.000,0.200,91754.000,0.300,7343.000,0.500,584.000,1.000,74.000,5.000,0
"03/09/08","12:08:51",406988.000,"cc",28356.660,6.00,6,0.100,294825.000,0.200,103249.000,0.300,8296.000,0.500,532.000,1.000,86.000,5.000,0
"03/09/08","12:08:57",400976.000,"cc",28320.762,6.00,6,0.100,297086.000,0.200,95812.000,0.300,7441.000,0.500,563.000,1.000,74.000,5.000,0
"03/09/08","12:09:03",480213.000,"cc",28330.174,6.00,6,0.100,366629.000,0.200,104766.000,0.300,8146.000,0.500,599.000,1.000,73.000,5.000,0
"03/09/08","12:09:09",354744.000,"cc",28298.363,6.00,6,0.100,268358.000,0.200,80064.000,0.300,5827.000,0.500,436.000,1.000,59.000,5.000,0
"03/09/08","12:09:15",375328.000,"cc",28260.840,6.00,6,0.100,306250.000,0.200,63762.000,0.300,4684.000,0.500,557.000,1.000,75.000,5.000,0
"03/09/08","12:09:21",339567.000,"cc",28352.106,6.00,6,0.100,260014.000,0.200,73363.000,0.300,5454.000,0.500,654.000,1.000,82.000,5.000,0
"03/09/08","12:09:27",361526.000,"cc",28297.315,6.00,6,0.100,277737.000,0.200,77019.000,0.300,5962.000,0.500,700.000,1.000,108.000,5.000,0
"03/09/08","12:09:33",406786.000,"cc",28359.178,6.00,6,0.100,328606.000,0.200,71904.000,0.300,5528.000,0.500,638.000,1.000,110.000,5.000,0
"03/09/08","12:09:39",504175.000,"cc",28299.645,6.00,6,0.100,362724.000,0.200,128889.000,0.300,11302.000,0.500,1104.000,1.000,156.000,5.000,0
"03/09/08","12:09:45",257451.000,"cc",28322.240,6.00,6,0.100,192550.000,0.200,59297.000,0.300,4783.000,0.500,700.000,1.000,121.000,5.000,0
"03/09/08","12:09:51",312195.000,"cc",28329.932,6.00,6,0.100,259859.000,0.200,48214.000,0.300,3532.000,0.500,529.000,1.000,61.000,5.000,0
"03/09/08","12:09:57",329359.000,"cc",28352.965,6.00,6,0.100,274082.000,0.200,50664.000,0.300,3745.000,0.500,761.000,1.000,107.000,5.000,0
"03/09/08","12:10:03",389563.000,"cc",28360.785,6.00,6,0.100,319910.000,0.200,64467.000,0.300,4485.000,0.500,600.000,1.000,101.000,5.000,0
"03/09/08","12:10:09",438375.000,"cc",28299.613,6.00,6,0.100,304224.000,0.200,121508.000,0.300,11655.000,0.500,868.000,1.000,120.000,5.000,0
"03/09/08","12:10:15",441218.000,"cc",28286.209,6.00,6,0.100,296528.000,0.200,132909.000,0.300,10976.000,0.500,708.000,1.000,97.000,5.000,0
"03/09/08","12:10:21",394882.000,"cc",28260.311,6.00,6,0.100,292331.000,0.200,94966.000,0.300,6835.000,0.500,661.000,1.000,89.000,5.000,0
"03/09/08","12:10:27",351319.000,"cc",28293.510,6.00,6,0.100,272277.000,0.200,73479.000,0.300,5030.000,0.500,490.000,1.000,43.000,5.000,0
"03/09/08","12:10:33",307575.000,"cc",28343.822,6.00,6,0.100,254703.000,0.200,46725.000,0.300,4488.000,0.500,1435.000,1.000,224.000,5.000,0
"03/09/08","12:10:39",360080.000,"cc",28367.361,6.00,6,0.100,296933.000,0.200,57697.000,0.300,4618.000,0.500,725.000,1.000,107.000,5.000,0
"03/09/08","12:10:45",351253.000,"cc",28293.971,6.00,6,0.100,287928.000,0.200,57771.000,0.300,4667.000,0.500,765.000,1.000,122.000,5.000,0
"03/09/08","12:10:51",367318.000,"cc",28319.574,6.00,6,0.100,303406.000,0.200,58740.000,0.300,4514.000,0.500,573.000,1.000,85.000,5.000,0
"03/09/08","12:10:57",369128.000,"cc",28278.770,6.00,6,0.100,304398.000,0.200,59488.000,0.300,4566.000,0.500,601.000,1.000,75.000,5.000,0
"03/09/08","12:11:03",378071.000,"cc",28325.367,6.00,6,0.100,309685.000,0.200,62721.000,0.300,4905.000,0.500,647.000,1.000,113.000,5.000,0
"03/09/08","12:11:09",354637.000,"cc",28341.334,6.00,6,0.100,292452.000,0.200,56593.000,0.300,4647.000,0.500,806.000,1.000,139.000,5.000,0
"03/09/08","12:11:15",325622.000,"cc",28276.473,6.00,6,0.100,271199.000,0.200,49581.000,0.300,4025.000,0.500,707.000,1.000,110.000,5.000,0
"03/09/08","12:11:21",383016.000,"cc",28286.889,6.00,6,0.100,309795.000,0.200,66191.000,0.300,5693.000,0.500,1132.000,1.000,205.000,5.000,0
"03/09/08","12:11:27",414081.000,"cc",28330.981,6.00,6,0.100,304210.000,0.200,99586.000,0.300,8740.000,0.500,1332.000,1.000,213.000,5.000,0
"03/09/08","12:11:33",354199.000,"cc",28320.172,6.00,6,0.100,266350.000,0.200,80030.000,0.300,6657.000,0.500,980.000,1.000,182.000,5.000,0
"03/09/08","12:11:39",343818.000,"cc",28354.029,6.00,6,0.100,284522.000,0.200,53722.000,0.300,4537.000,0.500,902.000,1.000,135.000,5.000,0
"03/09/08","12:11:45",292830.000,"cc",28312.408,6.00,6,0.100,245517.000,0.200,42614.000,0.300,3659.000,0.500,903.000,1.000,137.000,5.000,0
"03/09/08","12:11:51",267465.000,"cc",28287.084,6.00,6,0.100,206998.000,0.200,53690.000,0.300,5170.000,0.500,1358.000,1.000,249.000,5.000,0
"03/09/08","12:11:57",318564.000,"cc",28300.004,6.00,6,0.100,264823.000,0.200,48344.000,0.300,4227.000,0.500,989.000,1.000,181.000,5.000,0
"03/09/08","12:12:03",342026.000,"cc",28363.383,6.00,6,0.100,284107.000,0.200,52700.000,0.300,4283.000,0.500,794.000,1.000,142.000,5.000,0
"03/09/08","12:12:09",276073.000,"cc",28326.022,6.00,6,0.100,233060.000,0.200,38995.000,0.300,3129.000,0.500,757.000,1.000,132.000,5.000,0
"03/09/08","12:12:15",286993.000,"cc",28235.342,6.00,6,0.100,241564.000,0.200,41485.000,0.300,3179.000,0.500,647.000,1.000,118.000,5.000,0
"03/09/08","12:12:21",381846.000,"cc",28314.031,6.00,6,0.100,314483.000,0.200,62334.000,0.300,4312.000,0.500,618.000,1.000,99.000,5.000,0
"03/09/08","12:12:27",374454.000,"cc",28410.338,6.00,6,0.100,308567.000,0.200,60555.000,0.300,4485.000,0.500,715.000,1.000,132.000,5.000,0
"03/09/08","12:12:33",348202.000,"cc",28273.315,6.00,6,0.100,289039.000,0.200,54194.000,0.300,3958.000,0.500,877.000,1.000,134.000,5.000,0
"03/09/08","12:12:39",294391.000,"cc",28345.859,6.00,6,0.100,231736.000,0.200,57461.000,0.300,4245.000,0.500,828.000,1.000,121.000,5.000,0
"03/09/08","12:12:45",320824.000,"cc",28339.678,6.00,6,0.100,251560.000,0.200,63637.000,0.300,4687.000,0.500,819.000,1.000,121.000,5.000,0
"03/09/08","12:12:51",351050.000,"cc",28347.680,6.00,6,0.100,290942.000,0.200,54857.000,0.300,4373.000,0.500,768.000,1.000,110.000,5.000,0
"03/09/08","12:12:57",389442.000,"cc",28289.496,6.00,6,0.100,316937.000,0.200,66642.000,0.300,4990.000,0.500,761.000,1.000,112.000,5.000,0
"03/09/08","12:13:03",316380.000,"cc",28270.426,6.00,6,0.100,243962.000,0.200,65815.000,0.300,5472.000,0.500,959.000,1.000,172.000,5.000,0
"03/09/08","12:13:09",394301.000,"cc",28291.957,6.00,6,0.100,319224.000,0.200,67438.000,0.300,5950.000,0.500,1433.000,1.000,256.000,5.000,0
"03/09/08","12:13:15",357270.000,"cc",28362.221,6.00,6,0.100,294958.000,0.200,56940.000,0.300,4502.000,0.500,759.000,1.000,111.000,5.000,0
"03/09/08","12:13:21",319534.000,"cc",28239.291,6.00,6,0.100,265764.000,0.200,48938.000,0.300,4048.000,0.500,682.000,1.000,102.000,5.000,0
"03/09/08","12:13:27",309400.000,"cc",28225.211,6.00,6,0.100,240498.000,0.200,62384.000,0.300,5311.000,0.500,1036.000,1.000,171.000,5.000,0
"03/09/08","12:13:33",457164.000,"cc",28291.881,6.00,6,0.100,314552.000,0.200,130065.000,0.300,11220.000,0.500,1153.000,1.000,174.000,5.000,0
"03/09/08","12:13:39",399671.000,"cc",28327.373,6.00,6,0.100,291820.000,0.200,98491.000,0.300,8286.000,0.500,940.000,1.000,134.000,5.000,0
"03/09/08","12:13:45",399209.000,"cc",28389.551,6.00,6,0.100,298665.000,0.200,92237.000,0.300,7325.000,0.500,865.000,1.000,117.000,5.000,0
"03/09/08","12:13:51",391638.000,"cc",28358.484,6.00,6,0.100,293950.000,0.200,89657.000,0.300,7087.000,0.500,814.000,1.000,130.000,5.000,0
"03/09/08","12:13:57",324164.000,"cc",28320.885,6.00,6,0.100,251661.000,0.200,66194.000,0.300,5351.000,0.500,835.000,1.000,123.000,5.000,0
"03/09/08","12:14:03",417118.000,"cc",28289.949,6.00,6,0.100,336113.000,0.200,74028.000,0.300,5977.000,0.500,882.000,1.000,118.000,5.000,0
"03/09/08","12:14:09",330171.000,"cc",28299.647,6.00,6,0.100,271262.000,0.200,53593.000,0.300,4537.000,0.500,664.000,1.000,115.000,5.000,0
"03/09/08","12:14:15",324431.000,"cc",28316.822,6.00,6,0.100,270120.000,0.200,49539.000,0.300,3959.000,0.500,706.000,1.000,107.000,5.000,0
"03/09/08","12:14:21",361080.000,"cc",28283.113,6.00,6,0.100,298950.000,0.200,57055.000,0.300,4347.000,0.500,619.000,1.000,109.000,5.000,0
"03/09/08","12:14:27",428705.000,"cc",28357.518,6.00,6,0.100,292008.000,0.200,119740.000,0.300,15917.000,0.500,946.000,1.000,94.000,5.000,0
"03/09/08","12:14:33",381142.000,"cc",28433.734,6.00,6,0.100,312585.000,0.200,62757.000,0.300,5070.000,0.500,638.000,1.000,92.000,5.000,0
"03/09/08","12:14:39",296343.000,"cc",28280.049,6.00,6,0.100,230059.000,0.200,60700.000,0.300,4891.000,0.500,610.000,1.000,83.000,5.000,0
"03/09/08","12:14:45",374350.000,"cc",28311.381,6.00,6,0.100,308652.000,0.200,59991.000,0.300,4920.000,0.500,663.000,1.000,124.000,5.000,0
"03/09/08","12:14:51",352592.000,"cc",28288.697,6.00,6,0.100,291193.000,0.200,55817.000,0.300,4753.000,0.500,706.000,1.000,123.000,5.000,0
"03/09/08","12:14:57",396686.000,"cc",28273.350,6.00,6,0.100,321493.000,0.200,68630.000,0.300,5701.000,0.500,741.000,1.000,121.000,5.000,0
"03/09/08","12:15:03",345657.000,"cc",28299.537,6.00,6,0.100,283221.000,0.200,57235.000,0.300,4496.000,0.500,605.000,1.000,100.000,5.000,0
"03/09/08","12:15:09",420459.000,"cc",28352.166,6.00,6,0.100,340134.000,0.200,73783.000,0.300,5790.000,0.500,638.000,1.000,114.000,5.000,0
"03/09/08","12:15:15",365899.000,"cc",28254.830,6.00,6,0.100,256445.000,0.200,98859.000,0.300,9715.000,0.500,775.000,1.000,105.000,5.000,0
"03/09/08","12:15:21",457194.000,"cc",28354.195,6.00,6,0.100,358584.000,0.200,90702.000,0.300,7232.000,0.500,583.000,1.000,93.000,5.000,0
"03/09/08","12:15:27",433347.000,"cc",28350.580,6.00,6,0.100,314496.000,0.200,108827.000,0.300,9277.000,0.500,664.000,1.000,83.000,5.000,0
"03/09/08","12:15:33",440970.000,"cc",28295.902,6.00,6,0.100,315221.000,0.200,114839.000,0.300,10132.000,0.500,693.000,1.000,85.000,5.000,0
"03/09/08","12:15:39",426559.000,"cc",28300.633,6.00,6,0.100,342856.000,0.200,77064.000,0.300,5926.000,0.500,619.000,1.000,94.000,5.000,0
"03/09/08","12:15:45",426585.000,"cc",28341.871,6.00,6,0.100,315329.000,0.200,102662.000,0.300,7733.000,0.500,763.000,1.000,98.000,5.000,0
"03/09/08","12:15:51",371658.000,"cc",28321.891,6.00,6,0.100,285925.000,0.200,78637.000,0.300,5895.000,0.500,1041.000,1.000,160.000,5.000,0
"03/09/08","12:15:57",336937.000,"cc",28264.627,6.00,6,0.100,277957.000,0.200,52515.000,0.300,4774.000,0.500,1438.000,1.000,253.000,5.000,0
"03/09/08","12:16:03",354460.000,"cc",28335.027,6.00,6,0.100,272998.000,0.200,73994.000,0.300,6083.000,0.500,1149.000,1.000,236.000,5.000,0
"03/09/08","12:16:09",397321.000,"cc",28315.990,6.00,6,0.100,325187.000,0.200,66784.000,0.300,4515.000,0.500,725.000,1.000,110.000,5.000,0